sat.trackr.live / text

‹ back to catalog

QIANFAN-130

NORAD 69076 · 2026-104D

PAYLOAD ACTIVE UNKNOWN

§ Identity

Operator
Country
PRC
Launch date
2026-05-12
Launch site
TAISC
Launch vehicle
Mass (kg)
RCS (m²)

External: N2YO · Heavens-Above · Gunter

§ Orbital elements

Epoch: 2026-09-20T03:47:09.110112Z

Period
106.59 min
Inclination
88.9905°
Eccentricity
0.0002514
Mean motion
13.51021799 rev/d
Perigee alt
1,066.6 km
Apogee alt
1,070.4 km
Semi-major
7,446.6 km
B*
8.2744e-5
RAAN
331.8130°
Arg perigee
96.8659°
Mean anomaly
263.2778°
Rev number
1,796

§ Raw data

QIANFAN-1301 69076U 26104D   26263.15774433  .00000065  00000+0  82744-4 0  99932 69076  88.9905 331.8130 0002514  96.8659 263.2778 13.51021799 17969

JSON: /api/v1/satellites/69076 · /tle

For live sub-satellite position, see the globe view (requires WebGL).

§ Visibility from observer

Set your observer location to see the next 7 days of passes ≥ 10°. The values pass through the URL so the page stays shareable.

No JS? Fill the form by hand. The geolocation button needs JavaScript.